Wetbulb
34.54 36.89 37.89 38.35 39.13 40.17 42.36 45.10 46.36 45.02 44.21 43.85 43.42 42.58 42.12 41.75 41.81 41.73 41.37 40.95 41.15 41.30
32.87 32.90 33.08 35.03 36.99 37.42 38.19 39.28 41.47 45.75 44.81 44.03 43.48 43.17 42.60 41.75 41.44 41.38 41.39 41.58 41.66 40.83
31.97 32.19 31.62 32.12 32.56 33.82 35.06 36.53 38.05 39.90 42.15 44.62 42.93 42.28 41.75 40.62 40.47 39.94 39.89 40.30 40.70 40.86
31.91 31.78 30.87 30.09 30.35 31.23 32.87 33.72 35.32 36.82 39.53 41.04 43.10 41.88 40.75 40.51 40.12 39.57 39.38 39.70 39.28 39.58
31.64 30.61 29.92 29.88 29.92 30.06 29.66 31.44 32.76 34.61 35.88 37.35 38.28 40.78 40.07 39.25 39.63 38.99 38.42 38.63 38.70 38.74
28.65 27.78 26.10 25.66 27.24 28.56 28.97 28.81 30.32 32.58 33.31 34.00 34.35 36.14 37.60 39.64 38.23 38.83 38.77 38.84 39.00 38.78
28.22 27.56 25.56 22.26 20.13 20.17 23.97 27.10 28.33 29.84 31.02 32.14 32.92 35.05 34.43 36.48 37.00 36.01 36.65 38.12 38.63 39.02
27.21 26.90 22.96 18.50 17.06 17.24 18.76 21.96 22.49 25.32 27.14 27.99 33.40 34.60 35.54 35.66 36.14 34.53 33.87 34.10 36.20 37.96
22.64 22.69 20.99 19.24 17.89 17.07 16.33 16.32 17.41 21.22 23.23 24.87 31.11 33.85 35.69 36.23 35.35 34.74 33.57 32.34 32.56 34.78
18.66 19.47 19.38 19.03 16.84 17.91 18.34 15.72 15.37 17.33 21.69 23.11 27.36 33.19 34.13 35.09 33.39 33.42 33.62 33.19 32.16 32.42
17.91 17.37 18.13 15.29 16.87 14.59 16.81 18.56 20.77 19.43 18.59 21.55 25.14 32.49 33.94 34.04 32.32 32.76 33.05 32.75 32.99 31.70
18.13 17.71 16.47 15.11 17.30 17.14 18.39 20.59 19.45 22.80 21.57 20.57 21.87 30.81 34.08 32.76 31.98 32.23 32.67 32.72 32.89 32.40
17.39 17.27 17.51 17.37 15.56 14.84 18.86 23.07 25.12 25.36 21.68 21.24 23.38 29.24 31.62 32.92 29.14 29.41 31.46 32.54 32.62 32.39
15.37 16.92 18.51 20.25 18.18 19.04 19.53 22.08 18.76 22.09 22.14 20.89 22.28 24.10 32.50 34.29 28.14 28.94 30.77 31.46 31.46 31.88
MSLP
1022.94 1022.60 1022.47 1022.18 1021.50 1021.70 1021.19 1020.74 1020.04 1020.06 1020.45 1020.67 1020.93 1021.34 1021.58 1021.68 1021.99 1021.92 1021.83 1022.07 1021.79 1021.85
1023.73 1023.39 1023.30 1023.09 1022.79 1022.41 1022.09 1021.68 1020.97 1020.34 1020.56 1020.68 1020.88 1021.16 1021.36 1021.43 1021.72 1021.96 1021.87 1021.87 1021.95 1021.76
1024.49 1024.22 1023.96 1023.85 1023.78 1023.51 1022.92 1022.58 1022.01 1021.48 1020.96 1020.63 1020.96 1021.23 1021.35 1021.47 1021.75 1021.76 1021.87 1021.88 1022.02 1022.02
1024.91 1024.73 1024.48 1024.32 1024.15 1023.98 1023.72 1023.31 1022.74 1022.38 1021.91 1021.63 1021.39 1021.26 1021.41 1021.58 1021.70 1021.87 1021.82 1021.95 1022.05 1022.09
1025.31 1025.25 1025.03 1024.79 1024.61 1024.38 1024.11 1023.74 1023.33 1023.14 1022.71 1022.46 1022.17 1021.72 1021.62 1021.74 1021.67 1021.79 1021.87 1021.91 1022.09 1022.07
1025.95 1025.91 1025.79 1025.60 1025.21 1024.79 1024.53 1024.39 1024.09 1023.60 1023.40 1023.07 1022.64 1022.53 1022.15 1021.83 1021.69 1021.73 1021.68 1021.75 1021.90 1021.94
1026.38 1026.47 1026.51 1026.28 1025.93 1025.66 1025.32 1024.89 1024.56 1024.23 1023.93 1023.50 1023.08 1022.75 1022.45 1022.22 1022.05 1022.03 1021.95 1021.88 1021.85 1021.75
1026.97 1026.75 1026.75 1026.69 1026.56 1026.41 1025.95 1025.52 1025.19 1024.69 1024.19 1023.79 1023.37 1023.00 1022.63 1022.39 1022.27 1022.09 1021.98 1021.84 1021.72 1021.70
1027.22 1027.03 1026.86 1026.82 1026.89 1026.83 1026.40 1026.01 1025.70 1025.28 1024.84 1024.24 1023.77 1023.00 1022.67 1022.45 1022.38 1022.23 1022.13 1022.09 1021.90 1021.79
1027.59 1027.30 1027.08 1026.83 1026.71 1026.70 1026.59 1026.32 1025.84 1025.46 1025.13 1024.65 1024.03 1023.33 1022.91 1022.51 1022.33 1022.22 1022.00 1021.91 1021.98 1021.87
1027.99 1027.71 1027.23 1026.91 1026.76 1026.57 1026.33 1026.16 1025.92 1025.43 1025.08 1024.68 1024.19 1023.54 1022.89 1022.59 1022.59 1022.34 1022.14 1021.95 1022.00 1022.08
1028.23 1027.89 1027.46 1027.21 1026.71 1026.31 1026.20 1025.93 1025.69 1025.41 1025.07 1024.65 1024.09 1023.62 1023.12 1022.80 1022.60 1022.36 1022.23 1022.06 1021.97 1021.93
1028.39 1027.98 1027.48 1026.95 1026.57 1026.06 1025.77 1025.48 1025.34 1025.10 1024.83 1024.51 1024.09 1023.62 1023.41 1022.83 1022.62 1022.48 1022.26 1021.98 1021.77 1021.70
1028.44 1028.05 1027.43 1026.70 1026.09 1025.65 1025.37 1025.17 1025.05 1024.89 1024.51 1024.29 1024.07 1023.55 1023.05 1022.66 1022.51 1022.48 1022.25 1021.98 1021.68 1021.54
Wind_Speed
9 6 6 8 7 8 7 6 3 3 3 4 5 4 4 2 1 2 2 2 2 1
7 9 8 9 9 6 7 8 9 5 2 3 3 4 4 3 3 2 2 1 1 1
6 6 6 6 7 7 6 8 8 8 7 1 2 4 4 3 3 4 3 2 0 1
7 7 5 5 6 7 7 8 9 9 7 6 2 2 2 3 3 4 3 2 3 4
7 7 7 7 6 6 6 7 7 8 8 8 8 6 2 3 3 4 5 5 4 3
6 7 7 7 7 7 7 6 6 7 8 7 7 6 6 4 3 3 4 4 6 5
4 4 4 6 6 6 6 6 6 5 5 5 5 4 4 4 4 4 4 4 5 5
6 4 3 5 6 6 6 5 5 6 6 5 4 4 5 4 4 4 4 4 4 5
5 4 3 3 4 6 6 5 4 5 5 5 3 8 9 6 3 4 3 4 4 5
7 6 6 5 3 3 5 4 4 4 3 5 5 9 8 9 3 4 4 3 4 4
6 7 6 5 5 4 3 3 4 4 4 3 4 9 9 8 5 3 4 3 4 5
7 7 6 6 7 5 3 3 3 3 5 4 5 9 9 6 3 4 4 3 4 3
6 7 8 7 6 4 3 4 3 5 4 5 5 7 7 6 2 3 4 3 3 4
5 8 8 8 3 4 5 4 4 5 4 6 5 6 7 6 2 3 4 4 2 2
Wind_Direction
25 28 25 20 25 8 10 351 34 95 156 146 150 163 165 153 164 86 71 35 32 53
25 29 20 15 22 14 6 351 357 358 209 168 177 185 173 177 187 179 167 94 338 88
22 25 27 24 19 13 11 358 358 358 359 354 192 204 191 170 195 179 192 168 218 293
12 13 23 28 16 9 3 5 7 359 354 356 291 206 203 209 187 203 177 191 213 223
4 5 8 11 11 10 9 358 5 7 11 4 358 349 227 225 208 206 197 191 205 228
5 354 351 351 354 360 360 5 6 19 17 6 359 342 342 314 255 235 221 200 201 200
334 333 328 328 339 350 348 355 3 7 5 359 334 341 344 331 321 270 243 228 216 203
302 286 308 322 327 334 345 344 347 343 354 353 6 7 351 344 324 310 287 272 244 224
318 293 286 290 310 324 322 323 341 345 344 345 334 7 356 359 329 317 302 284 265 250
329 317 292 289 286 286 294 313 312 320 333 330 331 354 2 352 335 313 297 301 296 269
338 324 311 297 280 278 265 267 285 294 307 316 309 331 345 358 342 316 292 260 263 266
339 330 317 308 291 269 266 261 270 279 300 304 306 323 331 338 334 329 306 272 264 248
332 328 319 298 281 258 244 249 252 280 264 276 285 311 323 318 296 314 323 289 280 274
315 316 303 300 276 261 248 254 271 277 274 274 258 282 281 308 305 297 319 315 282 262